2019-073B

Last updated on Nov. 16, 2019, 12:02 a.m. UTC

1 44710U 19073B   19318.97738116  .00032027  49647-6  17228-3 0  9993
2 44710  28.4190 302.6570 7238160 185.4572 156.8794  2.39351599   257
UTC
Height (km)
Latitude
Longitude
Inclination
Orbital Period
UTC large
Height (km)
Speed (km/s)
/
Latitude / Longitude
Inclination (degrees)
Orbital Period (minutes)
Azimuth
Elevation
Range (km)
Doppler Factor
iOS Compass Heading
iOS Angle

Next 30 passes for location: Hong Kong

Rise time Rise Azimuth (degrees) Set time Set Azimuth (degrees) Duration Max altitude (degrees)

No matching passes for this satellites